Regional Weather Roundup
Issued by NWS

Home | Current Version | Previous Version | Graphics & Text | Print | Product List | Glossary On
Versions: 1 2 3 4 5 6 7 8 9 10 11 12 13 14 15 16 17 18 19 20 21 22 23 24 25 26 27 28 29 30 31 32 33 34 35 36 37 38 39 40 41 42 43 44 45 46 47 48 49 50
043
ASUS43 KDMX 191501
RWRIA

WEATHER ROUNDUP FOR IOWA
NATIONAL WEATHER SERVICE DES MOINES IA
900 AM CST MON FEB 19 2018

NOTE: "FAIR" INDICATES FEW OR NO CLOUDS BELOW 12,000 FEET WITH NO
SIGNIFICANT WEATHER AND/OR OBSTRUCTIONS TO VISIBILITY.

* - THESE STATIONS ARE NOT NWS STATIONS...THUS NOT UNDER NWS
QUALITY CONTROL.  THEY ALSO DO NOT REPORT WEATHER SUCH
AS PRECIPITATION OR FOG.

IAZ001>003-012>014-020>022-031>034-043>046-191600-
   NORTHWEST IOWA

CITY           SKY/WX    TMP DP  RH WIND       PRES   REMARKS
CARROLL *      LGT SNOW  28  27  93 N17G24    29.73F WCI  16
CHEROKEE *     CLOUDY    19  19  98 N12       29.80S FOG     WCI   7
DENISON *      SUNNY     25  25 100 MISG      29.76F FOG
LE MARS *      MOSUNNY   19  18  93 MISG      29.86R FOG
ORANGE CITY *  CLOUDY    19  18  93 N12G22    29.82R WCI   7
SHELDON *      LGT SNOW  18  16  93 MISG      29.80S
SIOUX CITY     CLOUDY    19  16  88 N18       29.85R WCI   4
SPENCER        LGT SNOW  19  15  84 MISG      29.80F VSB 1
STORM LAKE *   CLOUDY    21  21 100 MISG      29.75S FOG
$$

IAZ055>058-069>071-079>083-090>094-191600-
   SOUTHWEST IOWA

CITY           SKY/WX    TMP DP  RH WIND       PRES   REMARKS
ATLANTIC *     CLOUDY    30  30 100 N15G21    29.71R FOG     WCI  19
AUDUBON *      CLOUDY    28  27  93 N10G18    29.73S FOG     WCI  19
CLARINDA *     LGT RAIN  34  34 100 N16G24    29.71R VSB 1   WCI  23
COUNCIL BLFS * CLOUDY    27  27 100 N14G24    29.75R FOG     WCI  15
CRESTON *      LGT RAIN  34  34 100 N16       29.66R VSB 1/2 WCI  23
HARLAN  *      CLOUDY    27  27 100 N17G23    29.77R WCI  14
LAMONI         FOG       51  50  96 S6        29.62S VSB 1/4
RED OAK *      MIX PCPN  30  30 100 N17G24    29.73R WCI  18
SHENANDOAH *   CLOUDY    32  30  93 N14G26    29.74R FOG     WCI  22
$$

IAZ047>049-059>061-072>074-084-191600-
   CENTRAL IOWA

CITY           SKY/WX    TMP DP  RH WIND       PRES   REMARKS
AMES           FOG       34  33  96 N13       29.69R VSB 1   WCI  25
ANKENY *       FOG       37  37 100 NW8       29.69R VSB 1/2 WCI  31
BOONE *        MIX PCPN  32  32 100 N17       29.68S VSB 3/4 WCI  21
CHARITON *     CLOUDY    46  46 100 SE9       29.63F FOG
DES MOINES     DRZL/FOG  42  40  92 N8        29.66S VSB 1
GRINNELL*      FOG       43  42  97 SE8       29.68S VSB<1/4
KNOXVILLE *    CLOUDY    46  46 100 SE10      29.63F
MARSHALLTOWN   CLOUDY    36  36 100 N10       29.68R FOG     WCI  28
NEWTON *       FOG       43  43 100 SE7       29.66S VSB<1/4
PELLA *        CLOUDY    45  44  97 SE8       29.67S FOG
$$

IAZ004>006-015-016-023>025-035-036-191600-
   NORTH CENTRAL IOWA

CITY           SKY/WX    TMP DP  RH WIND       PRES   REMARKS
CLARION *      CLOUDY    30  30 100 N17G24    29.72F FOG     WCI  18
ESTHERVILLE    LGT SNOW  18  16  92 MISG      29.80S FOG
FORT DODGE *   LGT SNOW  29  27  92 N15       29.74R FOG     WCI  18
MASON CITY     CLOUDY    29  27  92 N17       29.75F FOG     WCI  17
FOREST CITY *  MIX PCPN  30  28  93 N15       29.75F WCI  19
WEBSTER CITY * LGT RAIN  32  32 100 N13       29.70R WCI  22
IOWA FALLS *   DRIZZLE   34  33  96 N9        29.71S WCI  26
$$

IAZ007>011-017>019-026>030-037>042-050>054-066-191600-
   NORTHEAST IOWA

CITY           SKY/WX    TMP DP  RH WIND       PRES   REMARKS
CEDAR RAPIDS   FOG       40  39  97 E7        29.69F VSB 1/4
CHARLES CITY * LGT RAIN  34  34 100 NE14      29.73F WCI  24
CLINTON *      LGT RAIN  40  39  97 MISG      29.76  VSB 1/2
DECORAH *      PTSUNNY   36  34  93 NE6       29.74S FOG     WCI  31
DUBUQUE        CLOUDY    37  35  92 SE6       29.75S FOG     WCI  32
MONTICELLO *   MIX PCPN  39  39 100 E5        29.73F
OELWEIN *      CLOUDY    36  36 100 E8        29.72F FOG     WCI  29
WATERLOO       MIX PCPN  34  34 100 NE8       29.71F VSB 3/4 WCI  27
$$

IAZ064-065-067-068-078-191600-
   EAST CENTRAL IOWA

CITY           SKY/WX    TMP DP  RH WIND       PRES   REMARKS
DAVENPORT      CLOUDY    44  42  93 SE13      29.75F FOG
IOWA CITY      LGT RAIN  42  40  92 SE7       29.72F FOG
MT. PLEASANT * CLOUDY    46  46 100 S12       29.72R FOG
MUSCATINE *    FOG       43  43 100 CALM      29.73S VSB 1
QUAD CITIES    CLOUDY    44  43  96 SE7       29.73F FOG
$$

IAZ062-063-075>077-085>089-095>099-191600-
   SOUTHEAST IOWA

CITY           SKY/WX    TMP DP  RH WIND       PRES   REMARKS
BURLINGTON     CLOUDY    48  47  96 S10       29.73S FOG
FAIRFIELD *    CLOUDY    46  46 100 S12       29.69S
FORT MADISON * CLOUDY    48  48 100 S9        29.74R FOG
KEOKUK *       CLOUDY    50  50 100 SE9       29.73S FOG
OSKALOOSA *    FOG       44  43  97 SE9       29.67S VSB 3/4
OTTUMWA        CLOUDY    48  48 100 SE13      29.67S
WASHINGTON *   CLOUDY    45  45 100 SE10      29.71S FOG
$$

ABBREVIATIONS USED IN REMARKS
   TC - TEMPERATURES IN CELSIUS
  WCI - WIND CHILL INDEX
   HX - HEAT INDEX
  VSB - VISIBILITY
$$





USA.gov is the U.S. government's official web portal to all federal, state and local government web resources and services.